Time,TemperatureF,DewpointF,PressureIn,WindDirection,WindDirectionDegrees,WindSpeedMPH,WindSpeedGustMPH,Humidity,HourlyPrecipIn,Conditions,Clouds,dailyrainin,SoftwareType,DateUTC
2013-04-13 00:03:00,51.0,41.0,29.98,WNW,285,0.0,0.0,68,0.00,,,0.16,,2013-04-13 04:03:00,
2013-04-13 00:12:00,51.0,41.0,29.98,WNW,285,0.0,0.0,68,0.00,,,0.16,,2013-04-13 04:12:00,
2013-04-13 00:23:00,51.0,41.0,29.98,WNW,285,0.0,0.0,69,0.00,,,0.09,,2013-04-13 04:23:00,
2013-04-13 00:33:00,51.0,42.0,29.98,WNW,285,0.0,0.0,70,0.00,,,0.09,,2013-04-13 04:33:00,
2013-04-13 00:42:00,51.0,42.0,29.98,WNW,285,0.0,0.0,70,0.00,,,0.09,,2013-04-13 04:42:00,
2013-04-13 00:53:00,50.0,42.0,29.98,WNW,285,0.0,0.0,73,0.00,,,0.09,,2013-04-13 04:53:00,
2013-04-13 01:02:00,50.0,42.0,29.98,WNW,285,0.0,0.0,75,0.00,,,0.09,,2013-04-13 05:02:00,
2013-04-13 01:12:00,50.0,42.0,29.98,WNW,285,0.0,0.0,75,0.00,,,0.09,,2013-04-13 05:12:00,
2013-04-13 01:22:00,49.0,41.0,29.98,WNW,285,0.0,0.0,75,0.00,,,0.09,,2013-04-13 05:22:00,
2013-04-13 01:32:00,50.0,42.0,29.98,WNW,285,0.0,0.0,74,0.00,,,0.09,,2013-04-13 05:32:00,
2013-04-13 01:43:00,50.0,42.0,29.98,WNW,285,0.0,0.0,74,0.00,,,0.09,,2013-04-13 05:43:00,
2013-04-13 01:53:00,49.0,42.0,29.98,WNW,285,0.0,0.0,76,0.00,,,0.09,,2013-04-13 05:53:00,
2013-04-13 02:02:00,49.0,41.0,29.98,WNW,285,0.0,0.0,73,0.00,,,0.09,,2013-04-13 06:02:00,
2013-04-13 02:12:00,49.0,41.0,29.98,WNW,285,0.0,0.0,73,0.00,,,0.09,,2013-04-13 06:12:00,
2013-04-13 02:24:00,50.0,42.0,29.98,WNW,285,0.0,0.0,74,0.00,,,0.09,,2013-04-13 06:24:00,
2013-04-13 02:35:00,48.0,41.0,29.98,WNW,285,0.0,0.0,78,0.00,,,0.09,,2013-04-13 06:35:00,
2013-04-13 02:48:00,48.0,41.0,29.98,WNW,285,0.0,0.0,78,0.00,,,0.09,,2013-04-13 06:48:00,
2013-04-13 02:55:00,49.0,41.0,29.99,WNW,285,0.0,0.0,73,0.00,,,0.09,,2013-04-13 06:55:00,
2013-04-13 03:05:00,47.0,42.0,29.99,WNW,285,0.0,0.0,83,0.00,,,0.09,,2013-04-13 07:05:00,
2013-04-13 03:15:00,47.0,42.0,29.99,WNW,285,0.0,0.0,83,0.00,,,0.09,,2013-04-13 07:15:00,
2013-04-13 03:24:00,46.0,42.0,29.99,WNW,285,0.0,0.0,85,0.00,,,0.00,,2013-04-13 07:24:00,
2013-04-13 03:35:00,47.0,42.0,29.99,WNW,285,0.0,0.0,83,0.00,,,0.00,,2013-04-13 07:35:00,
2013-04-13 03:45:00,47.0,42.0,29.99,WNW,285,0.0,0.0,83,0.00,,,0.00,,2013-04-13 07:45:00,
2013-04-13 03:57:00,46.0,42.0,30.00,WNW,285,0.0,0.0,85,0.00,,,0.00,,2013-04-13 07:57:00,
2013-04-13 04:06:00,45.0,42.0,30.00,WNW,285,0.0,0.0,89,0.00,,,0.00,,2013-04-13 08:06:00,
2013-04-13 04:15:00,45.0,42.0,30.00,WNW,285,0.0,0.0,89,0.00,,,0.00,,2013-04-13 08:15:00,
2013-04-13 04:25:00,47.0,42.0,30.00,WNW,285,0.0,0.0,83,0.00,,,0.00,,2013-04-13 08:25:00,
2013-04-13 04:35:00,45.0,42.0,30.00,WNW,285,0.0,0.0,88,0.00,,,0.00,,2013-04-13 08:35:00,
2013-04-13 04:45:00,45.0,42.0,30.00,WNW,285,0.0,0.0,88,0.00,,,0.00,,2013-04-13 08:45:00,
2013-04-13 04:55:00,44.0,41.0,30.00,WNW,285,0.0,0.0,90,0.00,,,0.00,,2013-04-13 08:55:00,
2013-04-13 05:05:00,44.0,42.0,30.01,WNW,285,0.0,0.0,91,0.00,,,0.00,,2013-04-13 09:05:00,
2013-04-13 05:15:00,44.0,42.0,30.01,WNW,285,0.0,0.0,91,0.00,,,0.00,,2013-04-13 09:15:00,
2013-04-13 05:24:00,44.0,42.0,30.01,WNW,285,0.0,0.0,92,0.00,,,0.00,,2013-04-13 09:24:00,
2013-04-13 05:36:00,44.0,42.0,30.01,WNW,285,0.0,0.0,92,0.00,,,0.00,,2013-04-13 09:36:00,
2013-04-13 05:50:00,44.0,42.0,30.01,WNW,285,0.0,0.0,92,0.00,,,0.00,,2013-04-13 09:50:00,
2013-04-13 05:55:00,44.0,42.0,30.01,WNW,285,0.0,0.0,92,0.00,,,0.00,,2013-04-13 09:55:00,
2013-04-13 06:05:00,44.0,42.0,30.01,WNW,285,0.0,0.0,92,0.00,,,0.00,,2013-04-13 10:05:00,
2013-04-13 06:15:00,44.0,42.0,30.02,WNW,285,0.0,0.0,92,0.00,,,0.00,,2013-04-13 10:15:00,
2013-04-13 06:24:00,44.0,42.0,30.02,WNW,285,0.0,0.0,92,0.00,,,0.00,,2013-04-13 10:24:00,
2013-04-13 06:37:00,43.0,41.0,30.02,WNW,285,0.0,0.0,92,0.00,,,0.00,,2013-04-13 10:37:00,
2013-04-13 06:46:00,43.0,41.0,30.02,WNW,285,0.0,0.0,92,0.00,,,0.00,,2013-04-13 10:46:00,
2013-04-13 06:55:00,42.0,40.0,30.02,WNW,285,0.0,0.0,94,0.00,,,0.00,,2013-04-13 10:55:00,
2013-04-13 07:06:00,42.0,40.0,30.03,WNW,285,0.0,0.0,94,0.00,,,0.00,,2013-04-13 11:06:00,
2013-04-13 07:13:00,42.0,40.0,30.03,WNW,285,0.0,0.0,94,0.00,,,0.00,,2013-04-13 11:13:00,
2013-04-13 07:24:00,42.0,40.0,30.03,WNW,285,0.0,0.0,94,0.00,,,0.00,,2013-04-13 11:24:00,
2013-04-13 07:34:00,42.0,41.0,30.04,WNW,285,0.0,0.0,95,0.00,,,0.00,,2013-04-13 11:34:00,
2013-04-13 07:45:00,42.0,41.0,30.04,WNW,285,0.0,0.0,95,0.00,,,0.00,,2013-04-13 11:45:00,
2013-04-13 07:54:00,41.0,39.0,30.04,WNW,285,0.0,1.0,94,0.00,,,0.00,,2013-04-13 11:54:00,
2013-04-13 08:08:00,41.0,40.0,30.05,WNW,285,0.0,0.0,95,0.00,,,0.00,,2013-04-13 12:08:00,
2013-04-13 08:15:00,41.0,40.0,30.05,WNW,285,0.0,0.0,95,0.00,,,0.00,,2013-04-13 12:15:00,
2013-04-13 08:25:00,41.0,40.0,30.06,WNW,285,0.0,1.0,95,0.00,,,0.00,,2013-04-13 12:25:00,
2013-04-13 08:35:00,42.0,41.0,30.06,WNW,285,0.0,0.0,96,0.00,,,0.00,,2013-04-13 12:35:00,
2013-04-13 08:47:00,42.0,41.0,30.06,WNW,285,0.0,0.0,96,0.00,,,0.00,,2013-04-13 12:47:00,
2013-04-13 08:55:00,43.0,42.0,30.06,WNW,285,0.0,4.0,96,0.00,,,0.00,,2013-04-13 12:55:00,
2013-04-13 09:06:00,44.0,43.0,30.07,WNW,285,0.0,0.0,96,0.00,,,0.00,,2013-04-13 13:06:00,
2013-04-13 09:15:00,44.0,43.0,30.07,WNW,285,0.0,0.0,96,0.00,,,0.00,,2013-04-13 13:15:00,
2013-04-13 09:30:00,46.0,45.0,30.08,WNW,285,0.0,0.0,95,0.00,,,0.00,,2013-04-13 13:30:00,
2013-04-13 09:48:00,47.0,45.0,30.08,NE,55,0.0,0.0,92,0.00,,,0.00,,2013-04-13 13:48:00,
2013-04-13 09:57:00,49.0,45.0,30.08,NE,55,0.0,1.0,87,0.00,,,0.00,,2013-04-13 13:57:00,
2013-04-13 10:05:00,52.0,46.0,30.08,NE,55,0.0,1.0,80,0.00,,,0.00,,2013-04-13 14:05:00,
2013-04-13 10:15:00,52.0,46.0,30.08,NE,55,0.0,1.0,80,0.00,,,0.00,,2013-04-13 14:15:00,
2013-04-13 10:24:00,54.0,44.0,30.09,NNW,327,0.0,1.0,68,0.00,,,0.00,,2013-04-13 14:24:00,
2013-04-13 10:39:00,55.0,43.0,30.09,NNW,327,0.0,1.0,63,0.00,,,0.00,,2013-04-13 14:39:00,
2013-04-13 10:46:00,55.0,43.0,30.09,NNW,327,0.0,1.0,63,0.00,,,0.00,,2013-04-13 14:46:00,
2013-04-13 11:00:00,56.0,43.0,30.09,NNW,327,0.0,2.0,62,0.00,,,0.00,,2013-04-13 15:00:00,
2013-04-13 11:05:00,57.0,42.0,30.09,NNW,327,0.0,3.0,58,0.00,,,0.00,,2013-04-13 15:05:00,
2013-04-13 11:14:00,57.0,42.0,30.09,NNW,327,0.0,3.0,58,0.00,,,0.00,,2013-04-13 15:14:00,
2013-04-13 11:29:00,58.0,39.0,30.09,NNW,342,0.0,2.0,50,0.00,,,0.00,,2013-04-13 15:29:00,
2013-04-13 11:36:00,59.0,43.0,30.09,NW,309,1.0,3.0,56,0.00,,,0.00,,2013-04-13 15:36:00,
2013-04-13 11:44:00,59.0,43.0,30.09,NW,309,1.0,3.0,56,0.00,,,0.00,,2013-04-13 15:44:00,
2013-04-13 11:58:00,59.0,42.0,30.09,NW,323,1.0,3.0,54,0.00,,,0.00,,2013-04-13 15:58:00,
2013-04-13 12:07:00,60.0,42.0,30.09,NW,323,0.0,2.0,52,0.00,,,0.00,,2013-04-13 16:07:00,
2013-04-13 12:25:00,61.0,42.0,30.10,NW,307,1.0,3.0,49,0.00,,,0.00,,2013-04-13 16:25:00,
2013-04-13 12:46:00,61.0,41.0,30.10,WNW,286,0.0,3.0,47,0.00,,,0.00,,2013-04-13 16:46:00,
2013-04-13 12:57:00,62.0,42.0,30.10,NW,306,1.0,5.0,47,0.00,,,0.00,,2013-04-13 16:57:00,
2013-04-13 13:07:00,64.0,43.0,30.09,NW,318,1.0,3.0,46,0.00,,,0.00,,2013-04-13 17:07:00,
2013-04-13 13:21:00,64.0,43.0,30.09,NW,318,1.0,3.0,46,0.00,,,0.00,,2013-04-13 17:21:00,
2013-04-13 13:37:00,65.0,43.0,30.08,NW,317,1.0,7.0,45,0.00,,,0.00,,2013-04-13 17:37:00,
2013-04-13 13:44:00,65.0,43.0,30.08,NW,317,1.0,7.0,45,0.00,,,0.00,,2013-04-13 17:44:00,
2013-04-13 14:04:00,65.0,43.0,30.07,WNW,292,0.0,3.0,44,0.00,,,0.00,,2013-04-13 18:04:00,
2013-04-13 14:15:00,66.0,38.0,30.07,WNW,285,1.0,5.0,35,0.00,,,0.00,,2013-04-13 18:15:00,
2013-04-13 14:24:00,67.0,37.0,30.06,NW,317,1.0,4.0,33,0.00,,,0.00,,2013-04-13 18:24:00,
2013-04-13 14:33:00,67.0,39.0,30.06,NNW,340,1.0,2.0,36,0.00,,,0.00,,2013-04-13 18:33:00,
2013-04-13 14:42:00,67.0,39.0,30.06,NNW,340,1.0,2.0,36,0.00,,,0.00,,2013-04-13 18:42:00,
2013-04-13 14:53:00,68.0,35.0,30.06,NNW,338,1.0,3.0,30,0.00,,,0.00,,2013-04-13 18:53:00,
2013-04-13 15:03:00,68.0,35.0,30.05,NW,317,2.0,5.0,30,0.00,,,0.00,,2013-04-13 19:03:00,
2013-04-13 15:12:00,68.0,35.0,30.05,NW,317,2.0,5.0,30,0.00,,,0.00,,2013-04-13 19:12:00,
2013-04-13 15:22:00,69.0,36.0,30.05,WNW,287,3.0,4.0,30,0.00,,,0.00,,2013-04-13 19:22:00,
2013-04-13 15:32:00,70.0,36.0,30.04,NE,34,1.0,4.0,29,0.00,,,0.00,,2013-04-13 19:32:00,
2013-04-13 15:42:00,70.0,36.0,30.04,NE,34,1.0,4.0,29,0.00,,,0.00,,2013-04-13 19:42:00,
2013-04-13 15:53:00,70.0,33.0,30.04,WNW,302,1.0,3.0,25,0.00,,,0.00,,2013-04-13 19:53:00,
2013-04-13 16:02:00,70.0,34.0,30.03,SE,136,1.0,4.0,26,0.00,,,0.00,,2013-04-13 20:02:00,
2013-04-13 16:12:00,70.0,34.0,30.03,SE,136,1.0,4.0,26,0.00,,,0.00,,2013-04-13 20:12:00,
2013-04-13 16:22:00,71.0,35.0,30.03,NW,312,0.0,3.0,27,0.00,,,0.00,,2013-04-13 20:22:00,
2013-04-13 16:32:00,71.0,37.0,30.03,WNW,289,3.0,5.0,29,0.00,,,0.00,,2013-04-13 20:32:00,
2013-04-13 16:42:00,71.0,37.0,30.03,WNW,289,3.0,5.0,29,0.00,,,0.00,,2013-04-13 20:42:00,
2013-04-13 16:52:00,71.0,38.0,30.02,NW,309,1.0,3.0,30,0.00,,,0.00,,2013-04-13 20:52:00,
2013-04-13 17:02:00,72.0,38.0,30.02,NW,310,1.0,3.0,29,0.00,,,0.00,,2013-04-13 21:02:00,
2013-04-13 17:12:00,72.0,38.0,30.02,NW,310,1.0,3.0,29,0.00,,,0.00,,2013-04-13 21:12:00,
2013-04-13 17:22:00,72.0,36.0,30.01,NE,42,0.0,4.0,27,0.00,,,0.00,,2013-04-13 21:22:00,
2013-04-13 17:33:00,73.0,39.0,30.01,NW,313,1.0,3.0,29,0.00,,,0.00,,2013-04-13 21:33:00,
2013-04-13 17:43:00,73.0,39.0,30.01,NW,313,1.0,3.0,29,0.00,,,0.00,,2013-04-13 21:43:00,
2013-04-13 17:53:00,72.0,39.0,30.01,West,273,1.0,3.0,30,0.00,,,0.00,,2013-04-13 21:53:00,
2013-04-13 18:03:00,72.0,35.0,30.01,WNW,302,1.0,4.0,26,0.00,,,0.00,,2013-04-13 22:03:00,
2013-04-13 18:13:00,72.0,35.0,30.01,WNW,302,1.0,4.0,26,0.00,,,0.00,,2013-04-13 22:13:00,
2013-04-13 18:22:00,72.0,34.0,30.01,NW,308,1.0,3.0,25,0.00,,,0.00,,2013-04-13 22:22:00,
2013-04-13 18:33:00,71.0,38.0,30.01,WNW,294,1.0,4.0,30,0.00,,,0.00,,2013-04-13 22:33:00,
2013-04-13 18:42:00,71.0,38.0,30.01,WNW,294,1.0,4.0,30,0.00,,,0.00,,2013-04-13 22:42:00,
2013-04-13 18:53:00,72.0,41.0,30.01,WNW,302,1.0,3.0,33,0.00,,,0.00,,2013-04-13 22:53:00,
2013-04-13 19:02:00,72.0,44.0,30.01,WNW,302,0.0,2.0,37,0.00,,,0.00,,2013-04-13 23:02:00,
2013-04-13 19:12:00,71.0,39.0,30.01,WNW,302,1.0,2.0,31,0.00,,,0.00,,2013-04-13 23:12:00,
2013-04-13 19:22:00,71.0,39.0,30.01,WNW,302,1.0,2.0,31,0.00,,,0.00,,2013-04-13 23:22:00,
2013-04-13 19:32:00,69.0,40.0,30.01,WNW,302,0.0,2.0,35,0.00,,,0.00,,2013-04-13 23:32:00,
2013-04-13 19:42:00,69.0,40.0,30.01,WNW,302,0.0,2.0,35,0.00,,,0.00,,2013-04-13 23:42:00,
2013-04-13 19:53:00,67.0,43.0,30.01,WNW,302,0.0,1.0,42,0.00,,,0.00,,2013-04-13 23:53:00,
2013-04-13 20:03:00,67.0,40.0,30.02,WNW,302,0.0,0.0,37,0.00,,,0.00,,2013-04-14 00:03:00,
2013-04-13 20:12:00,67.0,40.0,30.02,WNW,302,0.0,0.0,37,0.00,,,0.00,,2013-04-14 00:12:00,
2013-04-13 20:22:00,66.0,41.0,30.02,WNW,302,0.0,0.0,40,0.00,,,0.00,,2013-04-14 00:22:00,
2013-04-13 20:32:00,65.0,36.0,30.01,WNW,302,0.0,0.0,34,0.00,,,0.00,,2013-04-14 00:32:00,
2013-04-13 20:42:00,65.0,36.0,30.01,WNW,302,0.0,0.0,34,0.00,,,0.00,,2013-04-14 00:42:00,
2013-04-13 20:52:00,65.0,37.0,30.01,WNW,302,0.0,0.0,35,0.00,,,0.00,,2013-04-14 00:52:00,
2013-04-13 21:02:00,64.0,36.0,30.01,WNW,302,0.0,0.0,35,0.00,,,0.00,,2013-04-14 01:02:00,
2013-04-13 21:12:00,64.0,36.0,30.01,WNW,302,0.0,0.0,35,0.00,,,0.00,,2013-04-14 01:12:00,
2013-04-13 21:22:00,63.0,36.0,30.02,WNW,302,0.0,0.0,37,0.00,,,0.00,,2013-04-14 01:22:00,
2013-04-13 21:32:00,62.0,36.0,30.02,WNW,302,0.0,0.0,38,-99.99,,,-99.99,,2013-04-14 01:32:00,
2013-04-13 21:42:00,62.0,36.0,30.02,WNW,302,0.0,0.0,38,-99.99,,,-99.99,,2013-04-14 01:42:00,
2013-04-13 21:53:00,62.0,35.0,30.02,WNW,302,0.0,1.0,37,0.00,,,0.00,,2013-04-14 01:53:00,
2013-04-13 22:02:00,62.0,35.0,30.02,WNW,302,0.0,1.0,37,0.00,,,0.00,,2013-04-14 02:02:00,
2013-04-13 22:12:00,60.0,37.0,30.03,WNW,302,0.0,0.0,43,0.00,,,0.00,,2013-04-14 02:12:00,
2013-04-13 22:22:00,60.0,37.0,30.03,WNW,302,0.0,0.0,43,0.00,,,0.00,,2013-04-14 02:22:00,
2013-04-13 22:33:00,59.0,39.0,30.04,WNW,302,0.0,0.0,47,0.00,,,0.00,,2013-04-14 02:33:00,
2013-04-13 22:43:00,59.0,39.0,30.04,WNW,302,0.0,0.0,47,0.00,,,0.00,,2013-04-14 02:43:00,
2013-04-13 22:53:00,57.0,41.0,30.04,WNW,302,0.0,0.0,56,0.00,,,0.00,,2013-04-14 02:53:00,
2013-04-13 23:03:00,57.0,40.0,30.05,WNW,302,0.0,0.0,52,0.00,,,0.00,,2013-04-14 03:03:00,
2013-04-13 23:12:00,57.0,40.0,30.05,WNW,302,0.0,0.0,52,0.00,,,0.00,,2013-04-14 03:12:00,
2013-04-13 23:22:00,58.0,39.0,30.05,WNW,302,0.0,1.0,50,0.00,,,0.00,,2013-04-14 03:22:00,
2013-04-13 23:33:00,54.0,43.0,30.04,WNW,302,0.0,0.0,66,0.00,,,0.00,,2013-04-14 03:33:00,
2013-04-13 23:42:00,54.0,43.0,30.04,WNW,302,0.0,0.0,66,0.00,,,0.00,,2013-04-14 03:42:00,
2013-04-13 23:53:00,53.0,42.0,30.05,WNW,302,0.0,0.0,67,0.00,,,0.00,,2013-04-14 03:53:00,